Volver al catálogo

STARLINK-34227

ActivoComunicacionesVLEO
NORAD 64178·PAYLOAD·🇺🇸 United States

Lanzado May 28, 2025 desde Cape Canaveral Space Force Station

Loading…

Próximos Pases (próximas 24 horas)

TLE

ActualizadoSource: CelesTrak SupGP

Época: Sep 14, 2026, 20:52 UTC

1 64178C 25113J   26257.86993056  .00015476  00000+0  45738-3 0  2575
2 64178  53.1585 291.7934 0001108  87.7439  74.0118 15.34373614    17

Sigue STARLINK-34227 en tiempo real con AllMySat

Download on the App Store